User: anonymous   Login
Location: Unspecified
(0.0000°N, 0.0000°E)
Time: 19:21:42
(UTC+00:00)
Language:

SUSAT - Orbit

View from above orbital plane
View from above orbital plane
View from above satellite
View from above satellite

Ground track
Ground track

The orbit data is extracted from the following two-line orbital elements,

1 42730U 98067MK  18351.39474456  .00058207  00000-0  25539-3 0  9995
2 42730  51.6312 134.0511 0002957 239.6264 120.4447 15.84026237 89227
Epoch (UTC): 17 December 2018 09:28:25
Eccentricity: 0.0002957
inclination: 51.6312°
perigee height: 317 km
apogee height: 321 km
right ascension of ascending node: 134.0511°
argument of perigee: 239.6264°
revolutions per day: 15.84026237
mean anomaly at epoch: 120.4447°
orbit number at epoch: 8922

The dashed part of the orbit path shows where the satellite is in the earth's shadow,  

DLR